Lid_Strength_Index
1 -0 -1 -1 -1 -1 -1 -1 -2 -2 -1 -2 -1 -1 -1 -1 -1 -1 -1 -1 -1 -1 -1 -1 -1 -1 -1 -1 -1 -1 -1 -1 -1 -1 -1 -1 -1 -1 -1 -1 -2 -1 -1
0 -0 -1 -1 -1 -1 -1 -2 -2 -2 -2 -1 -1 -1 -1 -1 -1 -1 -1 -1 -1 -1 -1 -1 -1 -1 -2 -1 -1 -1 -1 -1 -1 -1 -1 -1 -1 -2 -1 -1 -2 -1 -1
1 -0 -0 -1 -1 -2 -1 -1 -2 -2 -2 -2 -1 -1 -1 -1 -1 -1 -1 -1 -1 -1 -1 -1 -1 -1 -1 -1 -1 -1 -1 -1 -1 -2 -1 -1 -1 -2 -1 -2 -2 -1 -1
0 -0 -0 -1 -1 -2 -1 -2 -2 -1 -1 -2 -2 -1 -1 -1 -1 -1 -1 -1 -1 -1 -1 -1 -1 -1 -1 -1 -1 -1 -1 -1 -2 -2 -1 -1 -1 -2 -2 -2 -2 -2 -2
1 -0 -0 -1 -1 -1 -1 -1 -1 -1 -1 -1 -1 -1 -1 -1 -1 -1 -1 -1 -1 -1 -1 -1 -1 -1 -1 -1 -1 -1 -1 -1 -2 -1 -0 -1 -1 -1 -2 -2 -2 -2 -2
1 -0 -0 -1 -1 -1 -1 -1 -1 -1 -1 -1 -1 -1 -1 -1 -1 -1 -1 -1 -1 -1 -1 -1 -1 -1 -1 -1 -1 -1 -1 -1 -2 0 -0 -1 -0 -2 -2 -2 -2 -2 -2
0 -0 -0 -1 -1 -1 -1 -1 -1 -1 -1 -1 -1 -1 -1 -1 -1 -1 -1 -1 -1 -1 -1 -1 -1 -1 -1 -1 -1 -1 -1 -2 -1 1 -0 -0 -0 -2 -2 -2 -2 -2 -2
1 -0 -0 -1 -1 -1 -1 -1 -1 -1 -1 -1 -1 -1 -1 -1 -1 -1 -1 -1 -2 -2 -1 -2 -2 -1 -1 -1 -1 -1 -1 -2 -0 1 -0 -0 -2 -1 -2 -2 -2 -2 -2
0 0 0 -0 -0 -1 -1 -1 -1 -1 -1 -1 -1 -1 -2 -2 -1 -1 -1 -1 -2 -1 -1 -1 -2 -1 -1 -1 -1 -1 -2 -2 1 1 -1 -1 -2 -1 -2 -1 -2 -2 -2
1 0 0 0 0 -0 -0 -0 -1 -1 -1 -1 -1 -1 -2 -2 -2 -2 -2 -1 -1 -1 -1 -1 -1 -1 -1 -1 -1 -1 -1 -1 1 -0 -0 -0 -2 -2 -2 -2 -2 -2 -2
2 2 1 0 0 0 -0 0 -0 -0 0 -0 -0 -1 -1 0 0 -0 -1 -2 -2 -2 -1 -2 -1 -1 -1 -1 -0 -1 -1 2 -0 -0 -0 -1 -1 -2 -2 -2 -2 -2 -2
3 4 1 0 1 0 0 1 2 2 2 2 2 1 1 2 2 1 -0 -1 -2 -2 -1 -1 -1 -1 -1 2 2 0 3 3 -0 1 1 -1 -2 -2 -2 -2 -2 -2 -2
3 2 2 1 1 1 1 1 2 3 3 3 4 3 3 3 3 2 3 2 2 0 1 0 0 0 1 2 2 3 3 3 1 1 1 -1 -2 -2 -2 -2 -2 -2 -2
4 2 1 0 1 1 2 1 2 3 3 4 4 4 3 4 4 4 4 4 4 3 3 3 3 3 3 3 3 4 4 4 2 2 2 -0 -2 -2 -2 -1 -1 -2 -1
5 2 1 1 0 2 2 2 2 3 4 5 5 4 3 3 4 4 5 5 5 4 4 4 4 3 3 3 3 4 4 4 4 3 4 0 -0 -1 -1 -0 0 0 -0
4 4 1 1 0 1 1 2 3 4 5 6 6 5 4 3 4 5 6 6 5 5 4 4 4 4 3 3 4 4 4 4 4 4 5 3 0 0 0 1 1 1 1
3 3 1 1 0 1 2 3 3 4 4 6 6 5 4 4 5 6 6 6 6 4 4 4 4 5 5 4 5 4 4 4 4 4 5 5 4 1 1 2 2 2 2
3 3 2 1 1 1 2 3 3 4 4 5 6 6 5 5 5 6 7 7 6 4 4 5 5 6 6 6 6 5 5 4 4 4 4 5 5 4 3 3 4 3 3
3 3 3 2 1 3 3 4 4 4 4 4 5 6 5 6 6 6 7 8 7 6 5 6 7 7 9 9 9 7 6 5 5 4 5 5 6 6 6 3 4 4 4
3 3 3 2 2 2 3 3 3 4 4 4 5 7 6 6 7 7 8 8 8 8 8 8 10 10 10 10 10 9 8 7 5 6 6 5 5 5 6 5 6 6 4
3 3 3 2 3 2 3 4 4 5 5 6 5 7 7 8 8 8 9 9 9 9 9 10 10 10 10 10 10 9 9 8 8 6 6 6 5 5 6 9 9 8 7
4 3 2 2 2 2 3 3 3 4 5 5 6 8 8 8 9 9 9 9 9 9 10 10 10 10 10 10 10 10 11 11 11 10 8 7 8 8 8 8 9 9 9
4 3 2 2 2 2 3 2 3 4 5 7 7 8 8 9 9 9 9 9 9 8 9 9 10 9 11 10 10 10 12 12 12 11 10 10 10 10 10 9 10 9 9
5 2 2 2 2 3 2 3 4 6 7 7 8 8 9 9 9 8 8 8 8 8 9 9 8 9 9 10 9 8 10 10 12 13 11 11 10 10 10 10 10 10 10
4 3 2 2 2 3 3 3 4 6 6 7 8 10 10 10 8 8 8 8 8 8 8 8 8 9 8 9 9 9 10 10 11 12 13 12 12 11 11 10 11 11 10
3 2 2 3 2 2 2 3 4 6 8 8 9 11 10 10 9 8 8 8 8 8 8 7 7 8 8 9 9 9 10 11 11 12 14 14 14 13 11 11 11 11 11